TimeMST,TemperatureF,Dew PointF,Humidity,Sea Level PressureIn,VisibilityMPH,Wind Direction,Wind SpeedMPH,Gust SpeedMPH,PrecipitationIn,Events,Conditions,WindDirDegrees,DateUTC
12:53 AM,41.0,30.9,67,29.88,10.0,East,6.9,-,N/A,,Overcast,100,2013-11-05 07:53:00
1:53 AM,39.9,30.9,70,29.82,10.0,East,11.5,-,N/A,,Partly Cloudy,90,2013-11-05 08:53:00
2:53 AM,37.9,30.0,73,29.80,10.0,East,9.2,-,N/A,,Clear,100,2013-11-05 09:53:00
3:53 AM,37.9,30.9,76,29.81,10.0,East,3.5,-,N/A,,Clear,80,2013-11-05 10:53:00
4:53 AM,37.9,32.0,79,29.83,10.0,Calm,Calm,-,N/A,,Mostly Cloudy,0,2013-11-05 11:53:00
5:53 AM,37.9,35.1,89,29.84,10.0,NNW,4.6,-,0.00,,Overcast,340,2013-11-05 12:53:00
6:53 AM,39.0,36.0,89,29.87,8.0,North,8.1,-,0.00,Rain,Light Rain,360,2013-11-05 13:53:00
7:35 AM,39.2,37.4,93,29.92,7.0,NNW,9.2,-,0.03,Rain,Light Rain,340,2013-11-05 14:35:00
7:49 AM,39.2,37.4,93,29.92,10.0,North,9.2,-,0.03,Rain,Light Rain,350,2013-11-05 14:49:00
7:53 AM,39.9,37.9,93,29.91,10.0,NNW,10.4,-,0.03,,Overcast,340,2013-11-05 14:53:00
8:29 AM,37.4,33.8,87,29.95,10.0,North,19.6,-,N/A,,Overcast,350,2013-11-05 15:29:00
8:49 AM,37.4,33.8,87,29.97,10.0,North,19.6,-,N/A,,Overcast,350,2013-11-05 15:49:00
8:53 AM,37.9,33.1,83,29.96,10.0,North,20.7,-,N/A,,Overcast,350,2013-11-05 15:53:00
9:46 AM,39.2,33.8,81,29.97,10.0,North,23.0,27.6,0.01,,Overcast,360,2013-11-05 16:46:00
9:53 AM,39.9,32.0,73,29.96,10.0,North,23.0,32.2,0.01,,Overcast,360,2013-11-05 16:53:00
10:53 AM,42.1,30.9,65,29.97,10.0,North,27.6,33.4,N/A,,Overcast,10,2013-11-05 17:53:00
11:53 AM,41.0,28.9,62,29.99,10.0,North,18.4,32.2,N/A,,Overcast,10,2013-11-05 18:53:00
12:53 PM,44.1,23.0,43,29.99,10.0,North,23.0,28.8,N/A,,Overcast,10,2013-11-05 19:53:00
1:53 PM,45.0,19.0,36,30.01,10.0,NNE,20.7,32.2,N/A,,Overcast,20,2013-11-05 20:53:00
2:53 PM,42.1,23.0,47,30.05,10.0,North,17.3,-,N/A,,Overcast,360,2013-11-05 21:53:00
3:53 PM,42.1,19.9,41,30.09,10.0,North,15.0,-,N/A,,Overcast,360,2013-11-05 22:53:00
4:53 PM,41.0,21.0,45,30.09,10.0,NNE,10.4,-,N/A,,Overcast,20,2013-11-05 23:53:00
5:53 PM,37.0,21.0,52,30.13,10.0,North,4.6,-,N/A,,Overcast,360,2013-11-06 00:53:00
6:53 PM,33.1,19.9,59,30.17,10.0,North,5.8,-,N/A,,Clear,350,2013-11-06 01:53:00
7:53 PM,30.9,21.0,67,30.20,10.0,West,10.4,-,N/A,,Clear,270,2013-11-06 02:53:00
8:53 PM,28.0,19.9,72,30.23,10.0,West,9.2,-,N/A,,Clear,270,2013-11-06 03:53:00
9:53 PM,28.0,23.0,81,30.24,10.0,West,9.2,-,N/A,,Clear,270,2013-11-06 04:53:00
10:53 PM,28.0,23.0,81,30.22,10.0,West,9.2,-,N/A,,Clear,270,2013-11-06 05:53:00
11:53 PM,27.0,23.0,85,30.23,10.0,WSW,10.4,-,N/A,,Clear,240,2013-11-06 06:53:00